Year,Month,Day,Hour,Minute,Value (Times are PST for barometer in hPa)
2016,03,12,00,00,994.69
2016,03,12,00,01,994.68
2016,03,12,00,02,994.68
2016,03,12,00,03,994.68
2016,03,12,00,04,994.68
2016,03,12,00,05,994.68
2016,03,12,00,06,994.68
2016,03,12,00,07,994.68
2016,03,12,00,08,994.68
2016,03,12,00,09,994.68
2016,03,12,00,10,994.68
2016,03,12,00,11,994.68
2016,03,12,00,12,994.68
2016,03,12,00,13,994.68
2016,03,12,00,14,994.68
2016,03,12,00,15,994.68
2016,03,12,00,16,994.68
2016,03,12,00,17,994.68
2016,03,12,00,18,994.68
2016,03,12,00,19,994.68
2016,03,12,00,20,994.68
2016,03,12,00,21,994.68
2016,03,12,00,22,994.68
2016,03,12,00,23,994.68
2016,03,12,00,24,994.68
2016,03,12,00,25,994.68
2016,03,12,00,26,994.68
2016,03,12,00,27,994.68
2016,03,12,00,28,994.68
2016,03,12,00,29,994.68
2016,03,12,00,30,994.75
2016,03,12,00,31,994.75
2016,03,12,00,32,994.75
2016,03,12,00,33,994.75
2016,03,12,00,34,994.75
2016,03,12,00,35,994.75
2016,03,12,00,36,994.75
2016,03,12,00,37,994.75
2016,03,12,00,38,994.75
2016,03,12,00,39,994.75
2016,03,12,00,40,994.75
2016,03,12,00,41,994.75
2016,03,12,00,42,994.75
2016,03,12,00,43,994.75
2016,03,12,00,44,994.75
2016,03,12,00,45,994.75
2016,03,12,00,46,994.75
2016,03,12,00,47,994.75
2016,03,12,00,48,994.75
2016,03,12,00,49,994.75
2016,03,12,00,50,994.75
2016,03,12,00,51,994.75
2016,03,12,00,52,994.75
2016,03,12,00,53,994.75
2016,03,12,00,54,994.75
2016,03,12,00,55,994.75
2016,03,12,00,56,994.75
2016,03,12,00,57,994.75
2016,03,12,00,58,994.75
2016,03,12,00,59,994.75
2016,03,12,01,00,994.82
2016,03,12,01,01,994.82
2016,03,12,01,02,994.82
2016,03,12,01,03,994.82
2016,03,12,01,04,994.82
2016,03,12,01,05,994.82
2016,03,12,01,06,994.82
2016,03,12,01,07,994.82
2016,03,12,01,08,994.82
2016,03,12,01,09,994.82
2016,03,12,01,10,994.82
2016,03,12,01,11,994.82
2016,03,12,01,12,994.82
2016,03,12,01,13,994.82
2016,03,12,01,14,994.82
2016,03,12,01,15,994.72
2016,03,12,01,16,994.72
2016,03,12,01,17,994.72
2016,03,12,01,18,994.72
2016,03,12,01,19,994.72
2016,03,12,01,20,994.72
2016,03,12,01,21,994.72
2016,03,12,01,22,994.72
2016,03,12,01,23,994.72
2016,03,12,01,24,994.72
2016,03,12,01,25,994.72
2016,03,12,01,26,994.72
2016,03,12,01,27,994.72
2016,03,12,01,28,994.72
2016,03,12,01,29,994.72
2016,03,12,01,30,994.82
2016,03,12,01,31,994.82
2016,03,12,01,32,994.82
2016,03,12,01,33,994.82
2016,03,12,01,34,994.82
2016,03,12,01,35,994.82
2016,03,12,01,36,994.82
2016,03,12,01,37,994.82
2016,03,12,01,38,994.82
2016,03,12,01,39,994.82
2016,03,12,01,40,994.82
2016,03,12,01,41,994.82
2016,03,12,01,42,994.82
2016,03,12,01,43,994.82
2016,03,12,01,44,994.82
2016,03,12,01,45,994.82
2016,03,12,01,46,994.82
2016,03,12,01,47,994.82
2016,03,12,01,48,994.82
2016,03,12,01,49,994.82
2016,03,12,01,50,994.82
2016,03,12,01,51,994.82
2016,03,12,01,52,994.82
2016,03,12,01,53,994.82
2016,03,12,01,54,994.82
2016,03,12,01,55,994.82
2016,03,12,01,56,994.82
2016,03,12,01,57,994.82
2016,03,12,01,58,994.82
2016,03,12,01,59,994.82
2016,03,12,02,00,994.85
2016,03,12,02,01,994.85
2016,03,12,02,02,994.85
2016,03,12,02,03,994.85
2016,03,12,02,04,994.85
2016,03,12,02,05,994.85
2016,03,12,02,06,994.85
2016,03,12,02,07,994.85
2016,03,12,02,08,994.85
2016,03,12,02,09,994.85
2016,03,12,02,10,994.85
2016,03,12,02,11,994.85
2016,03,12,02,12,994.85
2016,03,12,02,13,994.85
2016,03,12,02,14,994.85
2016,03,12,02,15,994.65
2016,03,12,02,16,994.65
2016,03,12,02,17,994.65
2016,03,12,02,18,994.65
2016,03,12,02,19,994.65
2016,03,12,02,20,994.65
2016,03,12,02,21,994.65
2016,03,12,02,22,994.65
2016,03,12,02,23,994.65
2016,03,12,02,24,994.65
2016,03,12,02,25,994.65
2016,03,12,02,26,994.65
2016,03,12,02,27,994.65
2016,03,12,02,28,994.65
2016,03,12,02,29,994.65
2016,03,12,02,30,994.72
2016,03,12,02,31,994.72
2016,03,12,02,32,994.72
2016,03,12,02,33,994.72
2016,03,12,02,34,994.72
2016,03,12,02,35,994.72
2016,03,12,02,36,994.72
2016,03,12,02,37,994.72
2016,03,12,02,38,994.72
2016,03,12,02,39,994.72
2016,03,12,02,40,994.72
2016,03,12,02,41,994.72
2016,03,12,02,42,994.72
2016,03,12,02,43,994.72
2016,03,12,02,44,994.72
2016,03,12,02,45,994.89
2016,03,12,02,46,994.89
2016,03,12,02,47,994.89
2016,03,12,02,48,994.89
2016,03,12,02,49,994.89
2016,03,12,02,50,994.89
2016,03,12,02,51,994.89
2016,03,12,02,52,994.89
2016,03,12,02,53,994.89
2016,03,12,02,54,994.89
2016,03,12,02,55,994.89
2016,03,12,02,56,994.89
2016,03,12,02,57,994.89
2016,03,12,02,58,994.89
2016,03,12,02,59,994.89
2016,03,12,03,00,995.19
2016,03,12,03,01,995.19
2016,03,12,03,02,995.19
2016,03,12,03,03,995.19
2016,03,12,03,04,995.19
2016,03,12,03,05,995.19
2016,03,12,03,06,995.19
2016,03,12,03,07,995.19
2016,03,12,03,08,995.19
2016,03,12,03,09,995.19
2016,03,12,03,10,995.19
2016,03,12,03,11,995.19
2016,03,12,03,12,995.19
2016,03,12,03,13,995.19
2016,03,12,03,14,995.19
2016,03,12,03,15,994.96
2016,03,12,03,16,994.96
2016,03,12,03,17,994.96
2016,03,12,03,18,994.96
2016,03,12,03,19,994.96
2016,03,12,03,20,994.96
2016,03,12,03,21,994.96
2016,03,12,03,22,994.96
2016,03,12,03,23,994.96
2016,03,12,03,24,994.96
2016,03,12,03,25,994.96
2016,03,12,03,26,994.96
2016,03,12,03,27,994.96
2016,03,12,03,28,994.96
2016,03,12,03,29,994.96
2016,03,12,03,30,994.82
2016,03,12,03,31,994.82
2016,03,12,03,32,994.82
2016,03,12,03,33,994.82
2016,03,12,03,34,994.82
2016,03,12,03,35,994.82
2016,03,12,03,36,994.82
2016,03,12,03,37,994.82
2016,03,12,03,38,994.82
2016,03,12,03,39,994.82
2016,03,12,03,40,994.82
2016,03,12,03,41,994.82
2016,03,12,03,42,994.82
2016,03,12,03,43,994.82
2016,03,12,03,44,994.82
2016,03,12,03,45,994.55
2016,03,12,03,46,994.55
2016,03,12,03,47,994.55
2016,03,12,03,48,994.55
2016,03,12,03,49,994.55
2016,03,12,03,50,994.55
2016,03,12,03,51,994.55
2016,03,12,03,52,994.55
2016,03,12,03,53,994.55
2016,03,12,03,54,994.55
2016,03,12,03,55,994.55
2016,03,12,03,56,994.55
2016,03,12,03,57,994.55
2016,03,12,03,58,994.55
2016,03,12,03,59,994.55
2016,03,12,04,00,994.45
2016,03,12,04,01,994.45
2016,03,12,04,02,994.45
2016,03,12,04,03,994.45
2016,03,12,04,04,994.45
2016,03,12,04,05,994.45
2016,03,12,04,06,994.45
2016,03,12,04,07,994.45
2016,03,12,04,08,994.45
2016,03,12,04,09,994.45
2016,03,12,04,10,994.45
2016,03,12,04,11,994.45
2016,03,12,04,12,994.45
2016,03,12,04,13,994.45
2016,03,12,04,14,994.45
2016,03,12,04,15,994.41
2016,03,12,04,16,994.41
2016,03,12,04,17,994.41
2016,03,12,04,18,994.41
2016,03,12,04,19,994.41
2016,03,12,04,20,994.41
2016,03,12,04,21,994.41
2016,03,12,04,22,994.41
2016,03,12,04,23,994.41
2016,03,12,04,24,994.41
2016,03,12,04,25,994.41
2016,03,12,04,26,994.41
2016,03,12,04,27,994.41
2016,03,12,04,28,994.41
2016,03,12,04,29,994.41
2016,03,12,04,30,994.24
2016,03,12,04,31,994.24
2016,03,12,04,32,994.24
2016,03,12,04,33,994.24
2016,03,12,04,34,994.24
2016,03,12,04,35,994.24
2016,03,12,04,36,994.24
2016,03,12,04,37,994.24
2016,03,12,04,38,994.24
2016,03,12,04,39,994.24
2016,03,12,04,40,994.24
2016,03,12,04,41,994.24
2016,03,12,04,42,994.24
2016,03,12,04,43,994.24
2016,03,12,04,44,994.24
2016,03,12,04,45,994.38
2016,03,12,04,46,994.38
2016,03,12,04,47,994.38
2016,03,12,04,48,994.38
2016,03,12,04,49,994.38
2016,03,12,04,50,994.38
2016,03,12,04,51,994.38
2016,03,12,04,52,994.38
2016,03,12,04,53,994.38
2016,03,12,04,54,994.38
2016,03,12,04,55,994.38
2016,03,12,04,56,994.38
2016,03,12,04,57,994.38
2016,03,12,04,58,994.38
2016,03,12,04,59,994.40
2016,03,12,05,00,994.82
2016,03,12,05,01,994.82
2016,03,12,05,02,994.82
2016,03,12,05,03,994.82
2016,03,12,05,04,994.82
2016,03,12,05,05,994.82
2016,03,12,05,06,994.82
2016,03,12,05,07,994.82
2016,03,12,05,08,994.82
2016,03,12,05,09,994.82
2016,03,12,05,10,994.82
2016,03,12,05,11,994.82
2016,03,12,05,12,994.82
2016,03,12,05,13,994.82
2016,03,12,05,14,994.82
2016,03,12,05,15,995.29
2016,03,12,05,16,995.29
2016,03,12,05,17,995.29
2016,03,12,05,18,995.29
2016,03,12,05,19,995.29
2016,03,12,05,20,995.29
2016,03,12,05,21,995.29
2016,03,12,05,22,995.29
2016,03,12,05,23,995.29
2016,03,12,05,24,995.29
2016,03,12,05,25,995.29
2016,03,12,05,26,995.29
2016,03,12,05,27,995.29
2016,03,12,05,28,995.29
2016,03,12,05,29,995.29
2016,03,12,05,30,995.09
2016,03,12,05,31,995.09
2016,03,12,05,32,995.09
2016,03,12,05,33,995.09
2016,03,12,05,34,995.09
2016,03,12,05,35,995.09
2016,03,12,05,36,995.09
2016,03,12,05,37,995.09
2016,03,12,05,38,995.09
2016,03,12,05,39,995.09
2016,03,12,05,40,995.09
2016,03,12,05,41,995.09
2016,03,12,05,42,995.09
2016,03,12,05,43,995.09
2016,03,12,05,44,995.08
2016,03,12,05,45,994.79
2016,03,12,05,46,994.79
2016,03,12,05,47,994.79
2016,03,12,05,48,994.79
2016,03,12,05,49,994.79
2016,03,12,05,50,994.79
2016,03,12,05,51,994.79
2016,03,12,05,52,994.79
2016,03,12,05,53,994.79
2016,03,12,05,54,994.79
2016,03,12,05,55,994.79
2016,03,12,05,56,994.79
2016,03,12,05,57,994.79
2016,03,12,05,58,994.79
2016,03,12,05,59,994.79
2016,03,12,06,00,994.82
2016,03,12,06,01,994.82
2016,03,12,06,02,994.82
2016,03,12,06,03,994.82
2016,03,12,06,04,994.82
2016,03,12,06,05,994.82
2016,03,12,06,06,994.82
2016,03,12,06,07,994.82
2016,03,12,06,08,994.82
2016,03,12,06,09,994.82
2016,03,12,06,10,994.82
2016,03,12,06,11,994.82
2016,03,12,06,12,994.82
2016,03,12,06,13,994.82
2016,03,12,06,14,994.82
2016,03,12,06,15,995.33
2016,03,12,06,16,995.33
2016,03,12,06,17,995.33
2016,03,12,06,18,995.33
2016,03,12,06,19,995.33
2016,03,12,06,20,995.33
2016,03,12,06,21,995.33
2016,03,12,06,22,995.33
2016,03,12,06,23,995.33
2016,03,12,06,24,995.33
2016,03,12,06,25,995.33
2016,03,12,06,26,995.33
2016,03,12,06,27,995.33
2016,03,12,06,28,995.33
2016,03,12,06,29,995.33
2016,03,12,06,30,995.29
2016,03,12,06,31,995.29
2016,03,12,06,32,995.29
2016,03,12,06,33,995.29
2016,03,12,06,34,995.29
2016,03,12,06,35,995.29
2016,03,12,06,36,995.29
2016,03,12,06,37,995.29
2016,03,12,06,38,995.29
2016,03,12,06,39,995.29
2016,03,12,06,40,995.29
2016,03,12,06,41,995.29
2016,03,12,06,42,995.29
2016,03,12,06,43,995.29
2016,03,12,06,44,995.29
2016,03,12,06,45,995.63
2016,03,12,06,46,995.63
2016,03,12,06,47,995.63
2016,03,12,06,48,995.63
2016,03,12,06,49,995.63
2016,03,12,06,50,995.63
2016,03,12,06,51,995.63
2016,03,12,06,52,995.63
2016,03,12,06,53,995.63
2016,03,12,06,54,995.63
2016,03,12,06,55,995.63
2016,03,12,06,56,995.63
2016,03,12,06,57,995.63
2016,03,12,06,58,995.63
2016,03,12,06,59,995.63
2016,03,12,07,00,996.07
2016,03,12,07,01,996.07
2016,03,12,07,02,996.07
2016,03,12,07,03,996.07
2016,03,12,07,04,996.07
2016,03,12,07,05,996.07
2016,03,12,07,06,996.07
2016,03,12,07,07,996.07
2016,03,12,07,08,996.07
2016,03,12,07,09,996.07
2016,03,12,07,10,996.07
2016,03,12,07,11,996.07
2016,03,12,07,12,996.07
2016,03,12,07,13,996.07
2016,03,12,07,14,996.07
2016,03,12,07,15,996.38
2016,03,12,07,16,996.38
2016,03,12,07,17,996.38
2016,03,12,07,18,996.38
2016,03,12,07,19,996.38
2016,03,12,07,20,996.38
2016,03,12,07,21,996.38
2016,03,12,07,22,996.38
2016,03,12,07,23,996.38
2016,03,12,07,24,996.38
2016,03,12,07,25,996.38
2016,03,12,07,26,996.38
2016,03,12,07,27,996.38
2016,03,12,07,28,996.38
2016,03,12,07,29,996.38
2016,03,12,07,30,996.41
2016,03,12,07,31,996.41
2016,03,12,07,32,996.41
2016,03,12,07,33,996.41
2016,03,12,07,34,996.41
2016,03,12,07,35,996.41
2016,03,12,07,36,996.41
2016,03,12,07,37,996.41
2016,03,12,07,38,996.41
2016,03,12,07,39,996.41
2016,03,12,07,40,996.41
2016,03,12,07,41,996.41
2016,03,12,07,42,996.41
2016,03,12,07,43,996.41
2016,03,12,07,44,996.41
2016,03,12,07,45,996.61
2016,03,12,07,46,996.61
2016,03,12,07,47,996.61
2016,03,12,07,48,996.61
2016,03,12,07,49,996.61
2016,03,12,07,50,996.61
2016,03,12,07,51,996.61
2016,03,12,07,52,996.61
2016,03,12,07,53,996.61
2016,03,12,07,54,996.61
2016,03,12,07,55,996.61
2016,03,12,07,56,996.61
2016,03,12,07,57,996.61
2016,03,12,07,58,996.61
2016,03,12,07,59,996.61
2016,03,12,08,00,996.92
2016,03,12,08,01,996.92
2016,03,12,08,02,996.92
2016,03,12,08,03,996.92
2016,03,12,08,04,996.92
2016,03,12,08,05,996.92
2016,03,12,08,06,996.92
2016,03,12,08,07,996.92
2016,03,12,08,08,996.92
2016,03,12,08,09,996.92
2016,03,12,08,10,996.92
2016,03,12,08,11,996.92
2016,03,12,08,12,996.92
2016,03,12,08,13,996.92
2016,03,12,08,14,996.92
2016,03,12,08,15,997.22
2016,03,12,08,16,997.22
2016,03,12,08,17,997.22
2016,03,12,08,18,997.22
2016,03,12,08,19,997.22
2016,03,12,08,20,997.22
2016,03,12,08,21,997.22
2016,03,12,08,22,997.22
2016,03,12,08,23,997.22
2016,03,12,08,24,997.22
2016,03,12,08,25,997.22
2016,03,12,08,26,997.22
2016,03,12,08,27,997.22
2016,03,12,08,28,997.22
2016,03,12,08,29,997.22
2016,03,12,08,30,997.12
2016,03,12,08,31,997.12
2016,03,12,08,32,997.12
2016,03,12,08,33,997.12
2016,03,12,08,34,997.12
2016,03,12,08,35,997.12
2016,03,12,08,36,997.12
2016,03,12,08,37,997.12
2016,03,12,08,38,997.12
2016,03,12,08,39,997.12
2016,03,12,08,40,997.12
2016,03,12,08,41,997.12
2016,03,12,08,42,997.12
2016,03,12,08,43,997.12
2016,03,12,08,44,997.12
2016,03,12,08,45,997.46
2016,03,12,08,46,997.46
2016,03,12,08,47,997.46
2016,03,12,08,48,997.46
2016,03,12,08,49,997.46
2016,03,12,08,50,997.46
2016,03,12,08,51,997.46
2016,03,12,08,52,997.46
2016,03,12,08,53,997.46
2016,03,12,08,54,997.46
2016,03,12,08,55,997.46
2016,03,12,08,56,997.46
2016,03,12,08,57,997.46
2016,03,12,08,58,997.46
2016,03,12,08,59,997.46
2016,03,12,09,00,997.36
2016,03,12,09,01,997.36
2016,03,12,09,02,997.36
2016,03,12,09,03,997.36
2016,03,12,09,04,997.36
2016,03,12,09,05,997.36
2016,03,12,09,06,997.36
2016,03,12,09,07,997.36
2016,03,12,09,08,997.36
2016,03,12,09,09,997.36
2016,03,12,09,10,997.36
2016,03,12,09,11,997.36
2016,03,12,09,12,997.36
2016,03,12,09,13,997.36
2016,03,12,09,14,997.36
2016,03,12,09,15,997.36
2016,03,12,09,16,997.36
2016,03,12,09,17,997.36
2016,03,12,09,18,997.36
2016,03,12,09,19,997.36
2016,03,12,09,20,997.36
2016,03,12,09,21,997.36
2016,03,12,09,22,997.36
2016,03,12,09,23,997.36
2016,03,12,09,24,997.36
2016,03,12,09,25,997.36
2016,03,12,09,26,997.36
2016,03,12,09,27,997.36
2016,03,12,09,28,997.36
2016,03,12,09,29,997.36
2016,03,12,09,30,997.46
2016,03,12,09,31,997.46
2016,03,12,09,32,997.46
2016,03,12,09,33,997.46
2016,03,12,09,34,997.46
2016,03,12,09,35,997.46
2016,03,12,09,36,997.46
2016,03,12,09,37,997.46
2016,03,12,09,38,997.46
2016,03,12,09,39,997.46
2016,03,12,09,40,997.46
2016,03,12,09,41,997.46
2016,03,12,09,42,997.46
2016,03,12,09,43,997.46
2016,03,12,09,44,997.46
2016,03,12,09,45,997.60
2016,03,12,09,46,997.60
2016,03,12,09,47,997.60
2016,03,12,09,48,997.60
2016,03,12,09,49,997.60
2016,03,12,09,50,997.60
2016,03,12,09,51,997.60
2016,03,12,09,52,997.60
2016,03,12,09,53,997.60
2016,03,12,09,54,997.60
2016,03,12,09,55,997.60
2016,03,12,09,56,997.60
2016,03,12,09,57,997.60
2016,03,12,09,58,997.60
2016,03,12,09,59,997.60
2016,03,12,10,00,997.80
2016,03,12,10,01,997.80
2016,03,12,10,02,997.80
2016,03,12,10,03,997.80
2016,03,12,10,04,997.80
2016,03,12,10,05,997.80
2016,03,12,10,06,997.80
2016,03,12,10,07,997.80
2016,03,12,10,08,997.80
2016,03,12,10,09,997.80
2016,03,12,10,10,997.80
2016,03,12,10,11,997.80
2016,03,12,10,12,997.80
2016,03,12,10,13,997.80
2016,03,12,10,14,997.80
2016,03,12,10,15,997.99
2016,03,12,10,16,998.00
2016,03,12,10,17,998.00
2016,03,12,10,18,998.00
2016,03,12,10,19,998.00
2016,03,12,10,20,998.00
2016,03,12,10,21,998.00
2016,03,12,10,22,998.00
2016,03,12,10,23,998.00
2016,03,12,10,24,998.00
2016,03,12,10,25,998.00
2016,03,12,10,26,998.00
2016,03,12,10,27,998.00
2016,03,12,10,28,998.00
2016,03,12,10,29,998.00
2016,03,12,10,30,998.24
2016,03,12,10,31,998.24
2016,03,12,10,32,998.24
2016,03,12,10,33,998.24
2016,03,12,10,34,998.24
2016,03,12,10,35,998.24
2016,03,12,10,36,998.24
2016,03,12,10,37,998.24
2016,03,12,10,38,998.24
2016,03,12,10,39,998.24
2016,03,12,10,40,998.24
2016,03,12,10,41,998.24
2016,03,12,10,42,998.24
2016,03,12,10,43,998.24
2016,03,12,10,44,998.24
2016,03,12,10,45,998.41
2016,03,12,10,46,998.41
2016,03,12,10,47,998.41
2016,03,12,10,48,998.41
2016,03,12,10,49,998.41
2016,03,12,10,50,998.41
2016,03,12,10,51,998.41
2016,03,12,10,52,998.41
2016,03,12,10,53,998.41
2016,03,12,10,54,998.41
2016,03,12,10,55,998.41
2016,03,12,10,56,998.41
2016,03,12,10,57,998.41
2016,03,12,10,58,998.41
2016,03,12,10,59,998.41
2016,03,12,11,00,998.78
2016,03,12,11,01,998.78
2016,03,12,11,02,998.78
2016,03,12,11,03,998.78
2016,03,12,11,04,998.78
2016,03,12,11,05,998.78
2016,03,12,11,06,998.78
2016,03,12,11,07,998.78
2016,03,12,11,08,998.78
2016,03,12,11,09,998.78
2016,03,12,11,10,998.78
2016,03,12,11,11,998.78
2016,03,12,11,12,998.78
2016,03,12,11,13,998.78
2016,03,12,11,14,998.78
2016,03,12,11,15,999.05
2016,03,12,11,16,999.05
2016,03,12,11,17,999.05
2016,03,12,11,18,999.05
2016,03,12,11,19,999.05
2016,03,12,11,20,999.05
2016,03,12,11,21,999.05
2016,03,12,11,22,999.05
2016,03,12,11,23,999.05
2016,03,12,11,24,999.05
2016,03,12,11,25,999.05
2016,03,12,11,26,999.05
2016,03,12,11,27,999.05
2016,03,12,11,28,999.05
2016,03,12,11,29,999.05
2016,03,12,11,30,999.43
2016,03,12,11,31,999.43
2016,03,12,11,32,999.43
2016,03,12,11,33,999.43
2016,03,12,11,34,999.43
2016,03,12,11,35,999.43
2016,03,12,11,36,999.43
2016,03,12,11,37,999.43
2016,03,12,11,38,999.43
2016,03,12,11,39,999.43
2016,03,12,11,40,999.43
2016,03,12,11,41,999.43
2016,03,12,11,42,999.43
2016,03,12,11,43,999.43
2016,03,12,11,44,999.43
2016,03,12,11,45,999.56
2016,03,12,11,46,999.56
2016,03,12,11,47,999.56
2016,03,12,11,48,999.56
2016,03,12,11,49,999.56
2016,03,12,11,50,999.56
2016,03,12,11,51,999.56
2016,03,12,11,52,999.56
2016,03,12,11,53,999.56
2016,03,12,11,54,999.56
2016,03,12,11,55,999.56
2016,03,12,11,56,999.56
2016,03,12,11,57,999.56
2016,03,12,11,58,999.56
2016,03,12,11,59,999.56
2016,03,12,12,00,999.70
2016,03,12,12,01,999.70
2016,03,12,12,02,999.70
2016,03,12,12,03,999.70
2016,03,12,12,04,999.70
2016,03,12,12,05,999.70
2016,03,12,12,06,999.70
2016,03,12,12,07,999.70
2016,03,12,12,08,999.70
2016,03,12,12,09,999.70
2016,03,12,12,10,999.70
2016,03,12,12,11,999.70
2016,03,12,12,12,999.70
2016,03,12,12,13,999.70
2016,03,12,12,14,999.70
2016,03,12,12,15,999.87
2016,03,12,12,16,999.87
2016,03,12,12,17,999.87
2016,03,12,12,18,999.87
2016,03,12,12,19,999.87
2016,03,12,12,20,999.87
2016,03,12,12,21,999.87
2016,03,12,12,22,999.87
2016,03,12,12,23,999.87
2016,03,12,12,24,999.87
2016,03,12,12,25,999.87
2016,03,12,12,26,999.87
2016,03,12,12,27,999.87
2016,03,12,12,28,999.87
2016,03,12,12,29,999.87
2016,03,12,12,30,999.83
2016,03,12,12,31,999.83
2016,03,12,12,32,999.83
2016,03,12,12,33,999.83
2016,03,12,12,34,999.83
2016,03,12,12,35,999.83
2016,03,12,12,36,999.83
2016,03,12,12,37,999.83
2016,03,12,12,38,999.83
2016,03,12,12,39,999.83
2016,03,12,12,40,999.83
2016,03,12,12,41,999.83
2016,03,12,12,42,999.83
2016,03,12,12,43,999.83
2016,03,12,12,44,999.83
2016,03,12,12,45,999.80
2016,03,12,12,46,999.80
2016,03,12,12,47,999.80
2016,03,12,12,48,999.80
2016,03,12,12,49,999.80
2016,03,12,12,50,999.80
2016,03,12,12,51,999.80
2016,03,12,12,52,999.80
2016,03,12,12,53,999.80
2016,03,12,12,54,999.80
2016,03,12,12,55,999.80
2016,03,12,12,56,999.80
2016,03,12,12,57,999.80
2016,03,12,12,58,999.80
2016,03,12,12,59,999.80
2016,03,12,13,00,999.96
2016,03,12,13,01,999.97
2016,03,12,13,02,999.97
2016,03,12,13,03,999.97
2016,03,12,13,04,999.97
2016,03,12,13,05,999.97
2016,03,12,13,06,999.97
2016,03,12,13,07,999.97
2016,03,12,13,08,999.97
2016,03,12,13,09,999.97
2016,03,12,13,10,999.97
2016,03,12,13,11,999.97
2016,03,12,13,12,999.97
2016,03,12,13,13,999.97
2016,03,12,13,14,999.97
2016,03,12,13,15,1000.00
2016,03,12,13,16,1000.00
2016,03,12,13,17,1000.00
2016,03,12,13,18,1000.00
2016,03,12,13,19,1000.00
2016,03,12,13,20,1000.00
2016,03,12,13,21,1000.00
2016,03,12,13,22,1000.00
2016,03,12,13,23,1000.00
2016,03,12,13,24,1000.00
2016,03,12,13,25,1000.00
2016,03,12,13,26,1000.00
2016,03,12,13,27,1000.00
2016,03,12,13,28,1000.00
2016,03,12,13,29,1000.00
2016,03,12,13,30,999.93
2016,03,12,13,31,999.93
2016,03,12,13,32,999.93
2016,03,12,13,33,999.93
2016,03,12,13,34,999.93
2016,03,12,13,35,999.93
2016,03,12,13,36,999.93
2016,03,12,13,37,999.93
2016,03,12,13,38,999.93
2016,03,12,13,39,999.93
2016,03,12,13,40,999.93
2016,03,12,13,41,999.93
2016,03,12,13,42,999.93
2016,03,12,13,43,999.93
2016,03,12,13,44,999.93
2016,03,12,13,45,1000.00
2016,03,12,13,46,1000.00
2016,03,12,13,47,1000.00
2016,03,12,13,48,1000.00
2016,03,12,13,49,1000.00
2016,03,12,13,50,1000.00
2016,03,12,13,51,1000.00
2016,03,12,13,52,1000.00
2016,03,12,13,53,1000.00
2016,03,12,13,54,1000.00
2016,03,12,13,55,1000.00
2016,03,12,13,56,1000.00
2016,03,12,13,57,1000.00
2016,03,12,13,58,1000.00
2016,03,12,13,59,1000.00
2016,03,12,14,00,1000.03
2016,03,12,14,01,1000.03
2016,03,12,14,02,1000.03
2016,03,12,14,03,1000.03
2016,03,12,14,04,1000.03
2016,03,12,14,05,1000.03
2016,03,12,14,06,1000.03
2016,03,12,14,07,1000.03
2016,03,12,14,08,1000.03
2016,03,12,14,09,1000.03
2016,03,12,14,10,1000.03
2016,03,12,14,11,1000.03
2016,03,12,14,12,1000.03
2016,03,12,14,13,1000.03
2016,03,12,14,14,1000.03
2016,03,12,14,15,1000.10
2016,03,12,14,16,1000.10
2016,03,12,14,17,1000.10
2016,03,12,14,18,1000.10
2016,03,12,14,19,1000.10
2016,03,12,14,20,1000.10
2016,03,12,14,21,1000.10
2016,03,12,14,22,1000.10
2016,03,12,14,23,1000.10
2016,03,12,14,24,1000.10
2016,03,12,14,25,1000.10
2016,03,12,14,26,1000.10
2016,03,12,14,27,1000.10
2016,03,12,14,28,1000.10
2016,03,12,14,29,1000.10
2016,03,12,14,30,1000.17
2016,03,12,14,31,1000.17
2016,03,12,14,32,1000.17
2016,03,12,14,33,1000.17
2016,03,12,14,34,1000.17
2016,03,12,14,35,1000.17
2016,03,12,14,36,1000.17
2016,03,12,14,37,1000.17
2016,03,12,14,38,1000.17
2016,03,12,14,39,1000.17
2016,03,12,14,40,1000.17
2016,03,12,14,41,1000.17
2016,03,12,14,42,1000.17
2016,03,12,14,43,1000.17
2016,03,12,14,44,1000.17
2016,03,12,14,45,1000.24
2016,03,12,14,46,1000.24
2016,03,12,14,47,1000.24
2016,03,12,14,48,1000.24
2016,03,12,14,49,1000.24
2016,03,12,14,50,1000.24
2016,03,12,14,51,1000.24
2016,03,12,14,52,1000.24
2016,03,12,14,53,1000.24
2016,03,12,14,54,1000.24
2016,03,12,14,55,1000.24
2016,03,12,14,56,1000.24
2016,03,12,14,57,1000.24
2016,03,12,14,58,1000.24
2016,03,12,14,59,1000.24
2016,03,12,15,00,1000.50
2016,03,12,15,01,1000.51
2016,03,12,15,02,1000.51
2016,03,12,15,03,1000.51
2016,03,12,15,04,1000.51
2016,03,12,15,05,1000.51
2016,03,12,15,06,1000.51
2016,03,12,15,07,1000.51
2016,03,12,15,08,1000.51
2016,03,12,15,09,1000.51
2016,03,12,15,10,1000.51
2016,03,12,15,11,1000.51
2016,03,12,15,12,1000.51
2016,03,12,15,13,1000.51
2016,03,12,15,14,1000.51
2016,03,12,15,15,1000.61
2016,03,12,15,16,1000.61
2016,03,12,15,17,1000.61
2016,03,12,15,18,1000.61
2016,03,12,15,19,1000.61
2016,03,12,15,20,1000.61
2016,03,12,15,21,1000.61
2016,03,12,15,22,1000.61
2016,03,12,15,23,1000.61
2016,03,12,15,24,1000.61
2016,03,12,15,25,1000.61
2016,03,12,15,26,1000.61
2016,03,12,15,27,1000.61
2016,03,12,15,28,1000.61
2016,03,12,15,29,1000.61
2016,03,12,15,30,1000.87
2016,03,12,15,31,1000.88
2016,03,12,15,32,1000.88
2016,03,12,15,33,1000.88
2016,03,12,15,34,1000.88
2016,03,12,15,35,1000.88
2016,03,12,15,36,1000.88
2016,03,12,15,37,1000.88
2016,03,12,15,38,1000.88
2016,03,12,15,39,1000.88
2016,03,12,15,40,1000.88
2016,03,12,15,41,1000.88
2016,03,12,15,42,1000.88
2016,03,12,15,43,1000.88
2016,03,12,15,44,1000.88
2016,03,12,15,45,1001.15
2016,03,12,15,46,1001.15
2016,03,12,15,47,1001.15
2016,03,12,15,48,1001.15
2016,03,12,15,49,1001.15
2016,03,12,15,50,1001.15
2016,03,12,15,51,1001.15
2016,03,12,15,52,1001.15
2016,03,12,15,53,1001.15
2016,03,12,15,54,1001.15
2016,03,12,15,55,1001.15
2016,03,12,15,56,1001.15
2016,03,12,15,57,1001.15
2016,03,12,15,58,1001.15
2016,03,12,15,59,1001.15
2016,03,12,16,00,1001.12
2016,03,12,16,01,1001.12
2016,03,12,16,02,1001.12
2016,03,12,16,03,1001.12
2016,03,12,16,04,1001.12
2016,03,12,16,05,1001.12
2016,03,12,16,06,1001.12
2016,03,12,16,07,1001.12
2016,03,12,16,08,1001.12
2016,03,12,16,09,1001.12
2016,03,12,16,10,1001.12
2016,03,12,16,11,1001.12
2016,03,12,16,12,1001.12
2016,03,12,16,13,1001.12
2016,03,12,16,14,1001.12
2016,03,12,16,15,1001.22
2016,03,12,16,16,1001.22
2016,03,12,16,17,1001.22
2016,03,12,16,18,1001.22
2016,03,12,16,19,1001.22
2016,03,12,16,20,1001.22
2016,03,12,16,21,1001.22
2016,03,12,16,22,1001.22
2016,03,12,16,23,1001.22
2016,03,12,16,24,1001.22
2016,03,12,16,25,1001.22
2016,03,12,16,26,1001.22
2016,03,12,16,27,1001.22
2016,03,12,16,28,1001.22